PST,Max TemperatureF,Mean TemperatureF,Min TemperatureF,Max Dew PointF,MeanDew PointF,Min DewpointF,Max Humidity, Mean Humidity, Min Humidity, Max Sea Level PressureIn, Mean Sea Level PressureIn, Min Sea Level PressureIn, Max VisibilityMiles, Mean VisibilityMiles, Min VisibilityMiles, Max Wind SpeedMPH, Mean Wind SpeedMPH, Max Gust SpeedMPH,PrecipitationIn, CloudCover, Events, WindDirDegrees
2013-1-1,28,27,25,20,19,19,81,75,69,30.68,30.62,30.52,10,10,10,8,4,10,0.00,8,,296
2013-1-2,28,26,24,20,20,19,81,75,69,30.66,30.61,30.52,10,10,10,10,6,12,0.00,8,,342
2013-1-3,28,22,15,20,17,14,84,76,68,30.51,30.41,30.33,10,10,10,14,6,17,0.00,7,,31
2013-1-4,27,24,20,22,19,16,84,79,74,30.48,30.43,30.36,10,10,9,14,6,16,0.00,8,,14
2013-1-5,33,30,26,26,24,21,92,84,75,30.43,30.31,30.21,10,6,1,16,6,18,0.02,8,Snow,346
2013-1-6,29,28,27,27,26,25,100,93,85,30.23,30.16,30.07,6,3,0,8,2,9,T,8,Fog-Snow,107
2013-1-7,31,28,24,28,26,23,100,93,85,30.09,29.94,29.83,10,5,1,31,4,33,0.03,7,Snow,359
2013-1-8,36,30,23,34,32,23,100,88,75,30.14,29.95,29.77,10,4,0,25,5,31,0.13,6,Fog-Rain,317
2013-1-9,46,40,34,35,30,20,92,72,52,29.80,29.71,29.59,10,10,10,22,9,26,0.00,0,,224
2013-1-10,37,32,27,28,19,12,82,63,44,30.03,29.93,29.79,10,10,10,22,12,26,0.00,4,,337
2013-1-11,32,26,20,16,13,9,62,54,46,30.29,30.20,30.02,10,10,9,26,16,33,T,3,,331
2013-1-12,28,21,13,12,9,6,92,69,46,30.42,30.36,30.30,10,10,10,25,7,25,0.00,0,,355
2013-1-13,27,21,14,16,13,10,88,72,55,30.51,30.46,30.40,10,10,10,12,5,15,0.00,3,,12
2013-1-14,29,25,20,19,17,15,84,77,69,30.51,30.43,30.34,10,10,9,12,7,14,0.00,5,,353
2013-1-15,30,24,17,21,18,15,92,81,69,30.66,30.61,30.53,10,9,6,13,9,15,0.00,1,,331
2013-1-16,32,26,20,25,23,19,92,85,78,30.65,30.60,30.54,10,9,7,10,5,13,0.00,7,,2
2013-1-17,27,24,21,23,21,19,96,89,81,30.62,30.54,30.38,10,9,5,28,3,30,0.00,8,,9
2013-1-18,28,26,23,25,24,20,92,87,81,30.41,30.36,30.31,9,4,1,9,4,10,0.00,8,,143
2013-1-19,30,25,20,22,20,17,92,81,69,30.51,30.46,30.40,10,9,7,12,4,14,0.00,2,,30
2013-1-20,26,21,15,20,17,12,92,84,75,30.60,30.53,30.47,10,9,1,12,5,14,0.00,6,,5
2013-1-21,22,20,18,19,18,16,92,88,84,30.48,30.42,30.33,10,9,6,10,4,12,0.00,8,,333
2013-1-22,23,22,20,19,18,17,92,87,81,30.40,30.33,30.24,10,9,6,8,4,,0.00,8,,358
2013-1-23,28,22,16,25,20,14,92,84,75,30.23,30.10,29.95,10,7,1,9,4,,T,5,Snow,33
2013-1-24,29,22,14,27,23,12,96,87,78,30.32,30.23,30.10,9,6,5,12,8,14,0.00,7,,350
2013-1-25,32,30,28,30,28,26,92,89,85,30.17,30.05,29.94,10,7,3,14,3,22,T,8,,319
2013-1-26,32,31,29,29,28,27,100,93,85,30.02,29.96,29.91,10,8,2,28,5,32,T,8,Snow,213
2013-1-27,31,30,29,28,27,26,92,89,85,30.05,30.01,29.97,10,8,5,25,2,30,0.00,8,,92
2013-1-28,32,30,27,27,25,23,92,85,78,29.99,29.94,29.87,10,10,10,32,5,32,0.00,4,,323
2013-1-29,41,33,25,29,26,22,92,76,59,30.22,30.14,29.93,10,10,10,24,5,28,0.00,1,,333
2013-1-30,48,36,23,32,28,22,92,73,54,30.26,30.21,30.15,10,10,10,16,5,28,0.00,0,,18
2013-1-31,39,32,24,34,29,23,92,87,82,30.30,30.26,30.22,10,10,7,10,4,12,0.01,3,Rain,7